Date String (YYYY-MM-DD hh:mm:ss) UTC,Instrument flags,Ambient pressure (hPa),Sample flow (lpm),Bypass flow (lpm),Sample temperature (°C),Ambient temperature (°C),ASC tube jacket temperature (°C),LED temperature (°C),Box temperature (°C),Sample RH (%),Span deviation,Mass concentration (μg/m³),Mass concentration (μg/m³),Mass concentration (μg/m³)
DateTimeUTC,F1_M11,P_M11,Q1_M11,Q2_M11,T1_M11,T2_M11,T3_M11,T4_M11,T5_M11,U1_M11,ZSPAN_M11,X2_M11,X0_M11,X1_M11
2023-02-17 07:00:00,,0827.8,5.00,0.00,22.7,21.9,00.0,31.4,24.4,05.9,0000.0,0003.59,0008.23,0003.13
2023-02-17 07:01:00,,0827.7,4.99,0.00,22.7,21.4,00.0,31.4,24.3,05.9,0000.0,0003.56,0008.19,0003.12
2023-02-17 07:02:00,,0827.7,5.03,0.00,22.6,21.0,00.0,31.5,24.2,05.9,0000.0,0003.60,0008.31,0003.11
2023-02-17 07:03:00,,0827.7,5.01,0.00,22.6,20.7,00.0,31.4,24.1,06.1,0000.0,0003.62,0008.19,0003.11
2023-02-17 07:04:00,,0827.7,5.02,0.00,22.5,20.5,00.0,31.4,24.1,06.1,0000.0,0003.60,0008.24,0003.10
2023-02-17 07:05:00,,0827.7,5.00,0.00,22.5,20.3,00.0,31.4,24.0,06.1,0000.0,0003.58,0008.50,0003.10
2023-02-17 07:06:00,,0827.7,5.01,0.00,22.4,20.7,00.0,31.4,24.0,06.1,0000.0,0003.58,0009.27,0003.09
2023-02-17 07:07:00,,0827.8,5.01,0.00,22.5,21.9,00.0,31.3,24.3,06.1,0000.0,0003.56,0009.38,0003.08
2023-02-17 07:08:00,,0827.7,4.96,0.00,22.6,22.9,00.0,31.3,24.6,06.1,0000.0,0003.55,0009.09,0003.08
2023-02-17 07:09:00,,0827.7,5.02,0.00,22.7,22.8,00.0,31.3,24.6,06.1,0000.0,0003.57,0008.87,0003.09
2023-02-17 07:10:00,,0827.7,4.97,0.00,22.7,22.2,00.0,31.4,24.5,06.1,0000.0,0003.57,0008.59,0003.09
2023-02-17 07:11:00,,0827.7,4.99,0.00,22.7,21.7,00.0,31.4,24.4,06.0,0000.0,0003.59,0008.57,0003.10
2023-02-17 07:12:00,,0827.7,5.00,0.00,22.6,21.3,00.0,31.4,24.2,06.1,0000.0,0003.60,0008.31,0003.11
2023-02-17 07:13:00,,0827.8,5.02,0.00,22.5,20.9,00.0,31.4,24.1,06.1,0000.0,0003.57,0008.20,0003.11
2023-02-17 07:14:00,,0827.7,5.00,0.00,22.5,20.6,00.0,31.4,24.0,06.1,0000.0,0003.54,0008.10,0003.10
2023-02-17 07:15:00,,0827.9,5.00,0.00,22.4,20.4,00.0,31.4,24.0,06.1,0000.0,0003.55,0008.25,0003.09
2023-02-17 07:16:00,,0827.8,5.01,0.00,22.4,20.2,00.0,31.4,23.9,06.1,0000.0,0003.56,0008.14,0003.10
2023-02-17 07:17:00,,0827.8,4.99,0.00,22.4,20.4,00.0,31.4,23.9,06.0,0000.0,0003.55,0007.86,0003.10
2023-02-17 07:18:00,,0827.8,4.96,0.00,22.4,21.6,00.0,31.3,24.1,05.8,0000.0,0003.57,0007.96,0003.10
2023-02-17 07:19:00,,0827.8,5.02,0.00,22.5,22.7,00.0,31.3,24.4,05.8,0000.0,0003.58,0008.05,0003.10
2023-02-17 07:20:00,,0827.9,5.01,0.00,22.6,22.9,00.0,31.3,24.5,05.7,0000.0,0003.59,0008.10,0003.09
2023-02-17 07:21:00,,0827.9,5.00,0.00,22.6,22.4,00.0,31.4,24.4,05.7,0000.0,0003.58,0008.08,0003.09
2023-02-17 07:22:00,,0827.9,5.01,0.00,22.6,22.0,00.0,31.4,24.3,05.7,0000.0,0003.56,0008.04,0003.08
2023-02-17 07:23:00,,0827.9,5.00,0.00,22.6,21.5,00.0,31.4,24.2,05.7,0000.0,0003.55,0007.98,0003.06
2023-02-17 07:24:00,,0828.0,5.00,0.00,22.5,21.1,00.0,31.4,24.1,05.8,0000.0,0003.59,0008.06,0003.05
2023-02-17 07:25:00,,0827.9,5.00,0.00,22.5,20.8,00.0,31.4,24.1,05.7,0000.0,0003.64,0008.46,0003.04
2023-02-17 07:26:00,,0827.9,4.99,0.00,22.4,20.6,00.0,31.4,24.0,05.8,0000.0,0003.71,0008.75,0003.04
2023-02-17 07:27:00,,0827.9,4.99,0.00,22.4,20.4,00.0,31.4,23.9,05.9,0000.0,0003.70,0008.71,0003.01
2023-02-17 07:28:00,,0828.0,4.99,0.00,22.3,20.2,00.0,31.3,23.8,05.9,0000.0,0003.67,0008.72,0002.98
2023-02-17 07:29:00,,0828.0,5.03,0.00,22.3,20.5,00.0,31.3,23.9,06.0,0000.0,0003.65,0008.38,0002.96
2023-02-17 07:30:00,,0827.9,5.02,0.00,22.4,21.8,00.0,31.2,24.2,06.0,0000.0,0003.66,0009.07,0002.95
2023-02-17 07:31:00,,0828.0,5.03,0.00,22.5,22.7,00.0,31.2,24.4,06.0,0000.0,0003.64,0008.99,0002.94
2023-02-17 07:32:00,,0827.9,5.01,0.00,22.6,22.6,00.0,31.3,24.4,06.1,0000.0,0003.61,0008.91,0002.92
2023-02-17 07:33:00,,0827.9,4.98,0.00,22.6,22.1,00.0,31.3,24.3,06.1,0000.0,0003.60,0008.91,0002.90
2023-02-17 07:34:00,,0828.0,5.00,0.00,22.5,21.6,00.0,31.3,24.2,06.0,0000.0,0003.61,0008.99,0002.91
2023-02-17 07:35:00,,0828.0,5.00,0.00,22.5,21.2,00.0,31.3,24.2,06.0,0000.0,0003.62,0009.20,0002.89
2023-02-17 07:36:00,,0828.0,4.99,0.00,22.5,21.0,00.0,31.3,24.1,06.0,0000.0,0003.56,0009.38,0002.89
2023-02-17 07:37:00,,0827.9,5.00,0.00,22.4,20.7,00.0,31.3,24.1,06.0,0000.0,0003.48,0008.75,0002.88
2023-02-17 07:38:00,,0827.9,5.02,0.00,22.4,20.6,00.0,31.3,24.0,06.3,0000.0,0003.45,0008.73,0002.87
2023-02-17 07:39:00,,0827.9,5.01,0.00,22.4,20.5,00.0,31.3,24.0,06.4,0000.0,0003.45,0008.21,0002.86
2023-02-17 07:40:00,,0828.0,5.03,0.00,22.4,21.3,00.0,31.2,24.1,06.4,0000.0,0003.45,0008.09,0002.86
2023-02-17 07:41:00,,0827.9,4.95,0.00,22.5,22.5,00.0,31.2,24.4,06.4,0000.0,0003.40,0007.13,0002.82
2023-02-17 07:42:00,,0828.0,5.00,0.00,22.6,23.2,00.0,31.2,24.6,06.2,0000.0,0003.40,0007.34,0002.80
2023-02-17 07:43:00,,0827.9,4.95,0.00,22.7,22.7,00.0,31.3,24.5,06.1,0000.0,0003.42,0007.87,0002.78
2023-02-17 07:44:00,,0827.8,5.01,0.00,22.6,22.2,00.0,31.3,24.4,06.1,0000.0,0003.45,0007.94,0002.78
2023-02-17 07:45:00,,0827.9,4.99,0.00,22.6,21.8,00.0,31.3,24.3,06.1,0000.0,0003.43,0007.84,0002.75
2023-02-17 07:46:00,,0827.9,5.00,0.00,22.6,21.4,00.0,31.4,24.2,06.1,0000.0,0003.35,0007.40,0002.74
2023-02-17 07:47:00,,0827.9,5.00,0.00,22.5,21.1,00.0,31.4,24.1,06.2,0000.0,0003.32,0006.60,0002.71
2023-02-17 07:48:00,,0827.8,5.01,0.00,22.5,20.8,00.0,31.4,24.1,06.2,0000.0,0003.27,0006.65,0002.66
2023-02-17 07:49:00,,0827.8,5.01,0.00,22.4,20.5,00.0,31.4,24.0,06.1,0000.0,0003.22,0006.27,0002.63
2023-02-17 07:50:00,,0827.8,4.99,0.00,22.4,20.3,00.0,31.3,23.9,06.2,0000.0,0003.20,0006.17,0002.63
2023-02-17 07:51:00,,0827.8,5.02,0.00,22.4,20.9,00.0,31.3,24.0,06.2,0000.0,0003.16,0006.35,0002.59
2023-02-17 07:52:00,,0827.8,5.00,0.00,22.5,22.1,00.0,31.2,24.3,06.2,0000.0,0003.14,0007.06,0002.57
2023-02-17 07:53:00,,0827.9,5.01,0.00,22.6,23.0,00.0,31.2,24.5,06.1,0000.0,0003.12,0006.65,0002.56
2023-02-17 07:54:00,,0827.9,5.00,0.00,22.7,22.7,00.0,31.3,24.5,05.9,0000.0,0003.08,0005.80,0002.56
2023-02-17 07:55:00,,0827.9,5.00,0.00,22.6,22.2,00.0,31.3,24.4,05.9,0000.0,0003.03,0005.61,0002.55
2023-02-17 07:56:00,,0827.9,5.00,0.00,22.6,21.7,00.0,31.4,24.3,05.9,0000.0,0003.04,0005.69,0002.55
2023-02-17 07:57:00,,0827.9,5.01,0.00,22.6,21.4,00.0,31.4,24.2,06.0,0000.0,0003.07,0005.81,0002.55
2023-02-17 07:58:00,,0827.9,4.99,0.00,22.5,21.1,00.0,31.4,24.2,06.2,0000.0,0003.09,0005.88,0002.52
2023-02-17 07:59:00,,0827.9,5.03,0.00,22.5,20.8,00.0,31.4,24.1,06.2,0000.0,0003.10,0005.78,0002.49
